Flag for Portugal Weather past 2 weeks in Portimão, Portugal

Now
59 °F

Clear.


Feels Like: 60 °F
Forecast: 53 / 72 °F
Wind: 3 mph from North

Location: Faro / Aeroporto

Current Time: May 5, 2015 at 5:22:38 AM

Latest Report: May 5, 2015 at 4:30 AM


Visibility: 10 mi

Pressure: 29.95 "Hg

Humidity: 82%

Dew point: 54 °F

Location of PortimãoLocation

Historic Weather in Portimão — Graph

°F

Portimão temperature yesterday

Maximum temperature yesterday: 68 °F (at 4:30 PM)
Minimum temperature yesterday: 61 °F (at 3:30 AM)
Average temperature yesterday: 64 °F

Past Weeks' High & Low Weather Summary

 TemperatureHumidityPressure
High75 °F (May 1, 12:00 PM)100% (Apr 25, 7:00 AM)30.21 "Hg (Apr 25, 7:00 AM)
Low52 °F (Apr 24, 5:30 AM)30% (May 1, 3:30 AM)29.77 "Hg (May 4, 4:00 AM)
Average64 °F73%30.02 "Hg
* Reported Apr 20 3:00 AM — May 5 3:30 AM, Portimão, Weather by CustomWeather, © 2015

Note: Actual official high and low records may vary slightly from our data, if they occured in-between our weather recording intervals... More about our weather records

Advertising

Portimão weather history for previous 24 hours

 ConditionsComfort  
Time TempWeatherWind HumidityBarometerVisibility
3:30 AM
Tue, May 5
61 °FClear.9 mph77%29.95 "Hg10 mi
3:00 AM59 °FPassing clouds.3 mph88%29.98 "HgN/A
2:30 AM61 °FClear.5 mph83%29.95 "Hg10 mi
2:00 AM61 °FClear.9 mph83%29.95 "Hg10 mi
1:30 AM61 °FPassing clouds.6 mph77%29.92 "HgN/A
1:00 AM63 °FPassing clouds.9 mph73%29.95 "HgN/A
12:30 AM63 °FClear.13 mph73%29.92 "Hg10 mi
12:00 AM63 °FClear.8 mph77%29.95 "Hg10 mi
11:30 PM
Mon, May 4
63 °FClear.9 mph77%29.95 "Hg10 mi
11:00 PM63 °FClear.12 mph83%29.95 "Hg10 mi
10:00 PM63 °FPassing clouds.10 mph88%29.95 "HgN/A
9:30 PM63 °FPassing clouds.12 mph83%29.92 "HgN/A
9:00 PM63 °FPassing clouds.15 mph88%29.92 "HgN/A
8:30 PM63 °FPassing clouds.16 mph88%29.89 "HgN/A
8:00 PM63 °FPassing clouds.14 mph88%29.89 "HgN/A
7:30 PM64 °FPassing clouds.17 mph83%29.86 "HgN/A
7:00 PM64 °FPassing clouds.17 mph83%29.86 "HgN/A
6:30 PM64 °FPassing clouds.18 mph83%29.86 "HgN/A
6:00 PM66 °FPassing clouds.18 mph78%29.83 "HgN/A
5:30 PM66 °FSunny.18 mph78%29.83 "Hg10 mi
5:00 PM66 °FPassing clouds.21 mph83%29.83 "HgN/A
4:30 PM68 °FScattered clouds.17 mph83%29.83 "HgN/A
4:00 PM66 °FBroken clouds.15 mph88%29.80 "HgN/A
3:30 PM66 °FPartly sunny.14 mph88%29.80 "HgN/A
3:00 PM64 °FLow clouds.15 mph100%29.80 "Hg6 mi
2:30 PM64 °FDrizzle. Fog.14 mph100%29.80 "Hg2 mi
2:00 PM66 °FLow clouds.13 mph88%29.80 "Hg3 mi
1:30 PM66 °FPartly sunny.13 mph88%29.80 "HgN/A
1:00 PM66 °FPartly sunny.14 mph88%29.80 "HgN/A
12:30 PM66 °FBroken clouds.12 mph88%29.80 "HgN/A
12:00 PM66 °FPartly sunny.12 mph88%29.80 "HgN/A
11:30 AM66 °FPartly sunny.10 mph88%29.80 "HgN/A
11:00 AM64 °FBroken clouds.8 mph94%29.80 "HgN/A
10:30 AM64 °FBroken clouds.8 mph94%29.80 "HgN/A
10:00 AM64 °FPartly sunny.7 mph94%29.80 "HgN/A
9:30 AM64 °FPartly sunny.5 mph94%29.77 "HgN/A
9:00 AM64 °FPartly sunny.5 mph94%29.77 "HgN/A
8:30 AM64 °FPartly sunny.2 mph94%29.77 "HgN/A
8:00 AM64 °FPartly sunny.3 mph94%29.77 "HgN/A
7:30 AM63 °FPassing clouds.2 mph100%29.77 "HgN/A
7:00 AM63 °FPartly cloudy.3 mph100%29.77 "Hg6 mi
6:30 AM63 °FPassing clouds.3 mph94%29.77 "HgN/A
6:00 AM63 °FPassing clouds.3 mph94%29.77 "HgN/A
5:30 AM63 °FPassing clouds.5 mph94%29.77 "HgN/A
5:00 AM63 °FPassing clouds.6 mph94%29.77 "HgN/A
Weather by CustomWeather, © 2015

See weather overviewHow to use our weather pages